This is the latest recevied weather packets stored in our database for station/object N4AR. If no packets are shown the sender has not sent any weather packets the latest 10 day(s).
| Time | Temp. | Humidity | Pressure | Rain* | Wind** | Luminosity | Snow |
|---|---|---|---|---|---|---|---|
| 1777947901 | 19.44° C | 59% | 1014 hPa | 0 mm | - | 0 W/m² | - |
| 1777947598 | 19.44° C | 59% | 1014 hPa | 0 mm | - | 0 W/m² | - |
| 1777947294 | 19.44° C | 58% | 1013.8 hPa | 0 mm | - | 0 W/m² | - |
| 1777946990 | 19.44° C | 57% | 1014 hPa | 0 mm | - | 0 W/m² | - |
| 1777946685 | 19.44° C | 57% | 1013.9 hPa | 0 mm | - | 0 W/m² | - |
| 1777946383 | 19.44° C | 56% | 1013.7 hPa | 0 mm | - | 0 W/m² | - |
| 1777946080 | 19.44° C | 54% | 1014.3 hPa | 0 mm | - | 0 W/m² | - |
| 1777945777 | 19.44° C | 52% | 1013.8 hPa | 0 mm | - | 0 W/m² | - |
| 1777945474 | 18.89° C | 51% | 1013.7 hPa | 0 mm | - | 0 W/m² | - |
| 1777945171 | 18.33° C | 51% | 1013.9 hPa | 0 mm | - | 0 W/m² | - |
| 1777944868 | 17.78° C | 51% | 1013.6 hPa | 0 mm | - | 0 W/m² | - |
| 1777944566 | 18.33° C | 52% | 1013.7 hPa | 0 mm | - | 0 W/m² | - |
| 1777944263 | 18.33° C | 50% | 1013.7 hPa | 0 mm | - | 0 W/m² | - |
| 1777943959 | 18.89° C | 49% | 1013.7 hPa | 0 mm | - | 0 W/m² | - |
| 1777943656 | 18.89° C | 48% | 1013.7 hPa | 0 mm | - | 0 W/m² | - |
| 1777943353 | 18.89° C | 47% | 1013.5 hPa | 0 mm | - | 0 W/m² | - |
| 1777943048 | 18.89° C | 47% | 1013.6 hPa | 0 mm | - | 0 W/m² | - |
| 1777942744 | 19.44° C | 46% | 1013.5 hPa | 0 mm | - | 0 W/m² | - |
| 1777942441 | 19.44° C | 45% | 1013.5 hPa | 0 mm | - | 0 W/m² | - |
| 1777942139 | 20° C | 46% | 1013.4 hPa | 0 mm | - | 0 W/m² | - |
| 1777941835 | 20° C | 43% | 1013.4 hPa | 0 mm | - | 0 W/m² | - |
| 1777941533 | 20.56° C | 43% | 1013.3 hPa | 0 mm | - | 0 W/m² | - |
| 1777941230 | 20.56° C | 41% | 1013 hPa | 0 mm | - | 0 W/m² | - |
| 1777940925 | 21.11° C | 41% | 1013 hPa | 0 mm | - | 0 W/m² | - |
| 1777940622 | 21.11° C | 41% | 1013 hPa | 0 mm | - | 0 W/m² | - |
* Rain latest hour (hover to see other rain measurements)
** Current wind speed in m/s (hover to see current wind gust speed)